Time,TemperatureF,DewpointF,PressureIn,WindDirection,WindDirectionDegrees,WindSpeedMPH,WindSpeedGustMPH,Humidity,HourlyPrecipIn,Conditions,Clouds,dailyrainin,SoftwareType,DateUTC
2013-03-08 00:08:00,32.4,18.0,30.20,NW,310,3.0,6.0,55,0.00,CLR,,0.00,WeatherDisplay:10.37,2013-03-08 05:08:00,
2013-03-08 00:18:00,34.0,19.5,30.20,NW,304,5.0,8.0,55,0.00,CLR,,0.00,WeatherDisplay:10.37,2013-03-08 05:18:00,
2013-03-08 00:28:00,34.8,18.5,30.20,NW,308,5.0,8.0,51,0.00,CLR,,0.00,WeatherDisplay:10.37,2013-03-08 05:28:00,
2013-03-08 00:38:00,35.0,18.2,30.20,NW,309,0.0,6.0,50,0.00,CLR,,0.00,WeatherDisplay:10.37,2013-03-08 05:38:00,
2013-03-08 00:48:00,34.5,17.8,30.20,NW,316,0.0,4.0,50,0.00,CLR,,0.00,WeatherDisplay:10.37,2013-03-08 05:48:00,
2013-03-08 00:58:00,34.7,17.9,30.20,NNE,23,2.0,6.0,50,0.00,CLR,,0.00,WeatherDisplay:10.37,2013-03-08 05:58:00,
2013-03-08 01:08:00,35.2,17.5,30.20,ENE,59,1.0,6.0,48,0.00,CLR,,0.00,WeatherDisplay:10.37,2013-03-08 06:08:00,
2013-03-08 01:18:00,35.4,17.7,30.20,NNW,337,2.0,4.0,48,0.00,CLR,,0.00,WeatherDisplay:10.37,2013-03-08 06:18:00,
2013-03-08 01:28:00,35.2,17.5,30.20,NNW,332,0.0,4.0,48,0.00,CLR,,0.00,WeatherDisplay:10.37,2013-03-08 06:28:00,
2013-03-08 01:38:00,34.9,17.2,30.20,WNW,283,0.0,5.0,48,0.00,CLR,,0.00,WeatherDisplay:10.37,2013-03-08 06:38:00,
2013-03-08 01:48:00,35.1,17.4,30.20,WNW,297,5.0,6.0,48,0.00,CLR,,0.00,WeatherDisplay:10.37,2013-03-08 06:48:00,
2013-03-08 01:58:00,35.8,17.5,30.17,NW,308,2.0,7.0,47,0.00,CLR,,0.00,WeatherDisplay:10.37,2013-03-08 06:58:00,
2013-03-08 02:08:00,35.9,17.6,30.17,WNW,285,2.0,6.0,47,0.00,CLR,,0.00,WeatherDisplay:10.37,2013-03-08 07:08:00,
2013-03-08 02:18:00,35.6,17.3,30.17,WSW,238,1.0,3.0,47,0.00,CLR,,0.00,WeatherDisplay:10.37,2013-03-08 07:18:00,
2013-03-08 02:28:00,35.4,17.2,30.17,SW,216,0.0,3.0,47,0.00,CLR,,0.00,WeatherDisplay:10.37,2013-03-08 07:28:00,
2013-03-08 02:38:00,35.1,16.8,30.17,WSW,258,0.0,0.0,47,0.00,CLR,,0.00,WeatherDisplay:10.37,2013-03-08 07:38:00,
2013-03-08 02:48:00,34.7,16.5,30.17,WSW,254,2.0,4.0,47,0.00,CLR,,0.00,WeatherDisplay:10.37,2013-03-08 07:48:00,
2013-03-08 02:58:00,34.9,17.2,30.17,West,264,2.0,4.0,48,0.00,CLR,,0.00,WeatherDisplay:10.37,2013-03-08 07:58:00,
2013-03-08 03:08:00,35.2,18.4,30.17,WSW,257,0.0,4.0,50,0.00,CLR,,0.00,WeatherDisplay:10.37,2013-03-08 08:08:00,
2013-03-08 03:18:00,35.1,17.8,30.17,West,274,3.0,6.0,49,0.00,CLR,,0.00,WeatherDisplay:10.37,2013-03-08 08:18:00,
2013-03-08 03:28:00,35.1,18.3,30.17,WNW,288,3.0,8.0,50,0.00,CLR,,0.00,WeatherDisplay:10.37,2013-03-08 08:28:00,
2013-03-08 03:38:00,35.4,18.1,30.17,West,269,5.0,8.0,49,0.00,CLR,,0.00,WeatherDisplay:10.37,2013-03-08 08:38:00,
2013-03-08 03:48:00,35.6,17.3,30.17,WNW,290,6.0,9.0,47,0.00,CLR,,0.00,WeatherDisplay:10.37,2013-03-08 08:48:00,
2013-03-08 03:58:00,36.0,15.6,30.17,NW,309,6.0,15.0,43,0.00,CLR,,0.00,WeatherDisplay:10.37,2013-03-08 08:58:00,
2013-03-08 04:08:00,36.3,15.4,30.17,NW,305,9.0,13.0,42,0.00,CLR,,0.00,WeatherDisplay:10.37,2013-03-08 09:08:00,
2013-03-08 04:18:00,36.2,15.3,30.17,WNW,288,6.0,8.0,42,0.00,CLR,,0.00,WeatherDisplay:10.37,2013-03-08 09:18:00,
2013-03-08 04:28:00,35.8,14.9,30.17,NW,306,6.0,12.0,42,0.00,CLR,,0.00,WeatherDisplay:10.37,2013-03-08 09:28:00,
2013-03-08 04:38:00,35.8,14.9,30.17,WNW,296,3.0,7.0,42,0.00,CLR,,0.00,WeatherDisplay:10.37,2013-03-08 09:38:00,
2013-03-08 04:48:00,36.0,15.1,30.17,NW,305,6.0,10.0,42,0.00,CLR,,0.00,WeatherDisplay:10.37,2013-03-08 09:48:00,
2013-03-08 04:58:00,35.8,14.3,30.17,NW,316,6.0,8.0,41,0.00,CLR,,0.00,WeatherDisplay:10.37,2013-03-08 09:58:00,
2013-03-08 05:08:00,35.8,14.3,30.17,NW,312,9.0,11.0,41,0.00,CLR,,0.00,WeatherDisplay:10.37,2013-03-08 10:08:00,
2013-03-08 05:18:00,35.6,14.2,30.17,NW,322,6.0,9.0,41,0.00,CLR,,0.00,WeatherDisplay:10.37,2013-03-08 10:18:00,
2013-03-08 05:28:00,35.6,14.2,30.17,NW,310,5.0,8.0,41,0.00,CLR,,0.00,WeatherDisplay:10.37,2013-03-08 10:28:00,
2013-03-08 05:38:00,35.4,14.0,30.17,WNW,298,3.0,6.0,41,0.00,CLR,,0.00,WeatherDisplay:10.37,2013-03-08 10:38:00,
2013-03-08 05:48:00,35.2,14.4,30.17,NW,307,3.0,6.0,42,0.00,CLR,,0.00,WeatherDisplay:10.37,2013-03-08 10:48:00,
2013-03-08 05:58:00,35.2,14.4,30.20,WNW,303,6.0,9.0,42,0.00,CLR,,0.00,WeatherDisplay:10.37,2013-03-08 10:58:00,
2013-03-08 06:08:00,35.4,14.0,30.20,NW,306,7.0,12.0,41,0.00,CLR,,0.00,WeatherDisplay:10.37,2013-03-08 11:08:00,
2013-03-08 06:18:00,35.6,14.2,30.20,NW,316,7.0,10.0,41,0.00,CLR,,0.00,WeatherDisplay:10.37,2013-03-08 11:18:00,
2013-03-08 06:28:00,35.6,14.7,30.17,NW,317,8.0,13.0,42,0.00,CLR,,0.00,WeatherDisplay:10.37,2013-03-08 11:28:00,
2013-03-08 06:38:00,34.7,18.4,30.20,NW,311,10.0,15.0,51,0.00,CLR,,0.00,WeatherDisplay:10.37,2013-03-08 11:38:00,
2013-03-08 06:48:00,34.0,20.3,30.20,NW,321,8.0,16.0,57,0.00,CLR,,0.00,WeatherDisplay:10.37,2013-03-08 11:48:00,
2013-03-08 06:58:00,33.8,20.6,30.20,NW,304,7.0,12.0,58,0.00,CLR,,0.00,WeatherDisplay:10.37,2013-03-08 11:58:00,
2013-03-08 07:08:00,34.2,20.5,30.20,NW,318,7.0,11.0,57,0.00,CLR,,0.00,WeatherDisplay:10.37,2013-03-08 12:08:00,
2013-03-08 07:18:00,34.5,19.1,30.20,NW,321,10.0,17.0,53,0.00,CLR,,0.00,WeatherDisplay:10.37,2013-03-08 12:18:00,
2013-03-08 07:28:00,34.5,18.2,30.20,NW,313,7.0,15.0,51,0.00,CLR,,0.00,WeatherDisplay:10.37,2013-03-08 12:28:00,
2013-03-08 07:38:00,35.0,18.2,30.20,NW,311,8.0,13.0,50,0.00,CLR,,0.00,WeatherDisplay:10.37,2013-03-08 12:38:00,
2013-03-08 07:48:00,35.6,16.3,30.20,NW,314,9.0,18.0,45,0.00,CLR,,0.00,WeatherDisplay:10.37,2013-03-08 12:48:00,
2013-03-08 07:58:00,35.4,16.2,30.20,NW,310,9.0,14.0,45,0.00,CLR,,0.00,WeatherDisplay:10.37,2013-03-08 12:58:00,
2013-03-08 08:08:00,35.6,15.8,30.20,NW,324,12.0,17.0,44,0.00,CLR,,0.00,WeatherDisplay:10.37,2013-03-08 13:08:00,
2013-03-08 08:18:00,35.6,15.3,30.20,NW,315,8.0,19.0,43,0.00,CLR,,0.00,WeatherDisplay:10.37,2013-03-08 13:18:00,
2013-03-08 08:28:00,35.6,15.3,30.23,NW,317,10.0,14.0,43,0.00,CLR,,0.00,WeatherDisplay:10.37,2013-03-08 13:28:00,
2013-03-08 08:38:00,35.6,15.3,30.23,NW,317,8.0,17.0,43,0.00,CLR,,0.00,WeatherDisplay:10.37,2013-03-08 13:38:00,
2013-03-08 08:48:00,36.0,15.1,30.23,NW,319,13.0,22.0,42,0.00,CLR,,0.00,WeatherDisplay:10.37,2013-03-08 13:48:00,
2013-03-08 08:58:00,36.9,15.3,30.23,NW,320,15.0,20.0,41,0.00,CLR,,0.00,WeatherDisplay:10.37,2013-03-08 13:58:00,
2013-03-08 09:08:00,36.5,15.0,30.23,NW,320,12.0,20.0,41,0.00,CLR,,0.00,WeatherDisplay:10.37,2013-03-08 14:08:00,
2013-03-08 09:18:00,36.3,14.3,30.23,NW,322,9.0,20.0,40,0.00,CLR,,0.00,WeatherDisplay:10.37,2013-03-08 14:18:00,
2013-03-08 09:28:00,36.9,14.2,30.23,NW,317,12.0,20.0,39,0.00,CLR,,0.00,WeatherDisplay:10.37,2013-03-08 14:28:00,
2013-03-08 09:38:00,37.0,13.1,30.23,NW,315,13.0,17.0,37,0.00,CLR,,0.00,WeatherDisplay:10.37,2013-03-08 14:38:00,
2013-03-08 09:48:00,37.6,13.6,30.23,NW,321,16.0,24.0,37,0.00,CLR,,0.00,WeatherDisplay:10.37,2013-03-08 14:48:00,
2013-03-08 09:58:00,37.9,13.3,30.23,NW,317,12.0,21.0,36,0.00,CLR,,0.00,WeatherDisplay:10.37,2013-03-08 14:58:00,
2013-03-08 10:08:00,38.1,10.8,30.23,NW,321,12.0,20.0,32,0.00,CLR,,0.00,WeatherDisplay:10.37,2013-03-08 15:08:00,
2013-03-08 10:18:00,38.7,11.3,30.23,NW,319,13.0,23.0,32,0.00,CLR,,0.00,WeatherDisplay:10.37,2013-03-08 15:18:00,
2013-03-08 10:28:00,39.4,10.5,30.23,NW,316,10.0,20.0,30,0.00,CLR,,0.00,WeatherDisplay:10.37,2013-03-08 15:28:00,
2013-03-08 10:38:00,40.5,11.5,30.23,NW,324,14.0,20.0,30,0.00,CLR,,0.00,WeatherDisplay:10.37,2013-03-08 15:38:00,
2013-03-08 10:48:00,40.0,11.0,30.23,NW,317,13.0,25.0,30,0.00,CLR,,0.00,WeatherDisplay:10.37,2013-03-08 15:48:00,
2013-03-08 10:58:00,40.1,11.1,30.23,NW,325,14.0,24.0,30,0.00,CLR,,0.00,WeatherDisplay:10.37,2013-03-08 15:58:00,
2013-03-08 11:08:00,40.8,11.7,30.23,NW,326,16.0,22.0,30,0.00,CLR,,0.00,WeatherDisplay:10.37,2013-03-08 16:08:00,
2013-03-08 11:18:00,41.2,10.5,30.23,NW,324,10.0,21.0,28,0.00,CLR,,0.00,WeatherDisplay:10.37,2013-03-08 16:18:00,
2013-03-08 11:28:00,41.5,11.5,30.23,NW,318,8.0,25.0,29,0.00,CLR,,0.00,WeatherDisplay:10.37,2013-03-08 16:28:00,
2013-03-08 11:38:00,41.0,11.1,30.23,NW,314,16.0,23.0,29,0.00,CLR,,0.00,WeatherDisplay:10.37,2013-03-08 16:38:00,
2013-03-08 11:48:00,41.8,11.8,30.23,NW,320,13.0,21.0,29,0.00,CLR,,0.00,WeatherDisplay:10.37,2013-03-08 16:48:00,
2013-03-08 11:58:00,42.3,11.4,30.23,NW,318,15.0,25.0,28,0.00,CLR,,0.00,WeatherDisplay:10.37,2013-03-08 16:58:00,
2013-03-08 12:08:00,42.6,12.5,30.23,NW,318,13.0,25.0,29,0.00,CLR,,0.00,WeatherDisplay:10.37,2013-03-08 17:08:00,
2013-03-08 12:18:00,42.6,12.5,30.23,NW,315,10.0,17.0,29,0.00,CLR,,0.00,WeatherDisplay:10.37,2013-03-08 17:18:00,
2013-03-08 12:28:00,42.7,12.6,30.23,NW,320,13.0,20.0,29,0.00,CLR,,0.00,WeatherDisplay:10.37,2013-03-08 17:28:00,
2013-03-08 12:38:00,43.5,12.5,30.20,NW,323,15.0,24.0,28,0.00,CLR,,0.00,WeatherDisplay:10.37,2013-03-08 17:38:00,
2013-03-08 12:48:00,43.5,12.5,30.20,NNW,328,14.0,21.0,28,0.00,CLR,,0.00,WeatherDisplay:10.37,2013-03-08 17:48:00,
2013-03-08 12:58:00,43.8,12.8,30.20,NW,314,12.0,22.0,28,0.00,CLR,,0.00,WeatherDisplay:10.37,2013-03-08 17:58:00,
2013-03-08 13:08:00,43.9,12.9,30.20,NW,312,13.0,23.0,28,0.00,CLR,,0.00,WeatherDisplay:10.37,2013-03-08 18:08:00,
2013-03-08 13:18:00,44.8,12.8,30.20,NW,314,12.0,22.0,27,0.00,CLR,,0.00,WeatherDisplay:10.37,2013-03-08 18:18:00,
2013-03-08 13:28:00,45.1,13.1,30.20,NW,313,12.0,18.0,27,0.00,CLR,,0.00,WeatherDisplay:10.37,2013-03-08 18:28:00,
2013-03-08 13:38:00,45.7,13.6,30.20,NW,317,13.0,20.0,27,0.00,CLR,,0.00,WeatherDisplay:10.37,2013-03-08 18:38:00,
2013-03-08 13:48:00,46.4,14.2,30.20,NW,309,10.0,20.0,27,0.00,CLR,,0.00,WeatherDisplay:10.37,2013-03-08 18:48:00,
2013-03-08 13:58:00,47.5,15.1,30.20,NW,325,12.0,17.0,27,0.00,CLR,,0.00,WeatherDisplay:10.37,2013-03-08 18:58:00,
2013-03-08 14:08:00,46.6,11.7,30.20,NW,324,10.0,22.0,24,0.00,CLR,,0.00,WeatherDisplay:10.37,2013-03-08 19:08:00,
2013-03-08 14:18:00,45.9,12.0,30.20,NW,322,12.0,16.0,25,0.00,CLR,,0.00,WeatherDisplay:10.37,2013-03-08 19:18:00,
2013-03-08 14:28:00,46.4,14.2,30.17,NW,312,12.0,23.0,27,0.00,CLR,,0.00,WeatherDisplay:10.37,2013-03-08 19:28:00,
2013-03-08 14:38:00,46.1,13.9,30.20,NW,312,10.0,23.0,27,0.00,CLR,,0.00,WeatherDisplay:10.37,2013-03-08 19:38:00,
2013-03-08 14:48:00,47.1,12.1,30.20,NW,314,9.0,22.0,24,0.00,CLR,,0.00,WeatherDisplay:10.37,2013-03-08 19:48:00,
2013-03-08 14:58:00,46.8,12.7,30.20,NW,319,13.0,17.0,25,0.00,CLR,,0.00,WeatherDisplay:10.37,2013-03-08 19:58:00,
2013-03-08 15:08:00,46.8,11.8,30.20,NW,322,13.0,20.0,24,0.00,CLR,,0.00,WeatherDisplay:10.37,2013-03-08 20:08:00,
2013-03-08 15:18:00,46.0,13.9,30.20,NW,314,13.0,16.0,27,0.00,CLR,,0.00,WeatherDisplay:10.37,2013-03-08 20:18:00,
2013-03-08 15:28:00,46.4,12.4,30.20,NW,318,12.0,23.0,25,0.00,CLR,,0.00,WeatherDisplay:10.37,2013-03-08 20:28:00,
2013-03-08 15:38:00,45.3,12.4,30.20,NW,318,8.0,15.0,26,0.00,CLR,,0.00,WeatherDisplay:10.37,2013-03-08 20:38:00,
2013-03-08 15:48:00,45.4,13.3,30.20,NW,320,10.0,17.0,27,0.00,CLR,,0.00,WeatherDisplay:10.37,2013-03-08 20:48:00,
2013-03-08 15:58:00,45.5,13.4,30.20,NNW,331,12.0,16.0,27,0.00,CLR,,0.00,WeatherDisplay:10.37,2013-03-08 20:58:00,
2013-03-08 16:08:00,46.2,14.0,30.20,NW,318,8.0,15.0,27,0.00,CLR,,0.00,WeatherDisplay:10.37,2013-03-08 21:08:00,
2013-03-08 16:18:00,47.7,15.3,30.20,NNW,327,12.0,16.0,27,0.00,CLR,,0.00,WeatherDisplay:10.37,2013-03-08 21:18:00,
2013-03-08 16:28:00,47.4,14.2,30.23,NNW,327,9.0,19.0,26,0.00,CLR,,0.00,WeatherDisplay:10.37,2013-03-08 21:28:00,
2013-03-08 16:38:00,46.0,13.0,30.23,NW,313,9.0,18.0,26,0.00,CLR,,0.00,WeatherDisplay:10.37,2013-03-08 21:38:00,
2013-03-08 16:48:00,45.7,13.6,30.23,NW,318,6.0,17.0,27,0.00,CLR,,0.00,WeatherDisplay:10.37,2013-03-08 21:48:00,
2013-03-08 16:58:00,45.7,13.6,30.23,NW,315,8.0,15.0,27,0.00,CLR,,0.00,WeatherDisplay:10.37,2013-03-08 21:58:00,
2013-03-08 17:08:00,45.3,13.2,30.23,NW,311,10.0,15.0,27,0.00,CLR,,0.00,WeatherDisplay:10.37,2013-03-08 22:08:00,
2013-03-08 17:18:00,45.1,13.1,30.23,NW,321,8.0,13.0,27,0.00,CLR,,0.00,WeatherDisplay:10.37,2013-03-08 22:18:00,
2013-03-08 17:28:00,45.0,12.9,30.23,NW,311,8.0,13.0,27,0.00,CLR,,0.00,WeatherDisplay:10.37,2013-03-08 22:28:00,
2013-03-08 17:38:00,45.0,12.9,30.26,WNW,300,6.0,13.0,27,0.00,CLR,,0.00,WeatherDisplay:10.37,2013-03-08 22:38:00,
2013-03-08 17:48:00,44.8,12.8,30.26,NW,323,8.0,12.0,27,0.00,CLR,,0.00,WeatherDisplay:10.37,2013-03-08 22:48:00,
2013-03-08 17:58:00,44.8,12.8,30.26,NW,316,7.0,13.0,27,0.00,CLR,,0.00,WeatherDisplay:10.37,2013-03-08 22:58:00,
2013-03-08 18:08:00,44.6,13.5,30.26,NW,314,6.0,10.0,28,0.00,CLR,,0.00,WeatherDisplay:10.37,2013-03-08 23:08:00,
2013-03-08 18:18:00,44.1,13.0,30.26,NW,312,5.0,9.0,28,0.00,CLR,,0.00,WeatherDisplay:10.37,2013-03-08 23:18:00,
2013-03-08 18:28:00,43.5,12.5,30.23,NW,304,5.0,11.0,28,0.00,CLR,,0.00,WeatherDisplay:10.37,2013-03-08 23:28:00,
2013-03-08 18:38:00,43.3,12.4,30.26,NW,311,5.0,8.0,28,0.00,CLR,,0.00,WeatherDisplay:10.37,2013-03-08 23:38:00,
2013-03-08 18:48:00,43.2,12.2,30.26,NW,322,6.0,10.0,28,0.00,CLR,,0.00,WeatherDisplay:10.37,2013-03-08 23:48:00,
2013-03-08 18:58:00,43.1,12.1,30.26,NNW,327,6.0,8.0,28,0.00,CLR,,0.00,WeatherDisplay:10.37,2013-03-08 23:58:00,
2013-03-08 19:08:00,43.0,12.0,30.26,NW,323,5.0,9.0,28,0.00,CLR,,0.00,WeatherDisplay:10.37,2013-03-09 00:08:00,
2013-03-08 19:18:00,43.0,12.0,30.26,NW,317,6.0,9.0,28,0.00,CLR,,0.00,WeatherDisplay:10.37,2013-03-09 00:18:00,
2013-03-08 19:28:00,43.0,12.0,30.29,NW,311,5.0,9.0,28,0.00,CLR,,0.00,WeatherDisplay:10.37,2013-03-09 00:28:00,
2013-03-08 19:38:00,43.2,12.2,30.29,NW,315,5.0,9.0,28,0.00,CLR,,0.00,WeatherDisplay:10.37,2013-03-09 00:38:00,
2013-03-08 19:48:00,43.0,12.0,30.29,NW,315,5.0,9.0,28,0.00,CLR,,0.00,WeatherDisplay:10.37,2013-03-09 00:48:00,
2013-03-08 19:58:00,42.8,11.9,30.29,NW,308,5.0,8.0,28,0.00,CLR,,0.00,WeatherDisplay:10.37,2013-03-09 00:58:00,
2013-03-08 20:08:00,42.4,12.4,30.29,NW,314,5.0,8.0,29,0.00,CLR,,0.00,WeatherDisplay:10.37,2013-03-09 01:08:00,
2013-03-08 20:18:00,41.9,11.9,30.29,NNW,333,2.0,6.0,29,0.00,CLR,,0.00,WeatherDisplay:10.37,2013-03-09 01:18:00,
2013-03-08 20:28:00,41.1,11.2,30.29,NW,326,2.0,4.0,29,0.00,CLR,,0.00,WeatherDisplay:10.37,2013-03-09 01:28:00,
2013-03-08 20:38:00,39.7,10.8,30.32,WNW,282,3.0,8.0,30,0.00,CLR,,0.00,WeatherDisplay:10.37,2013-03-09 01:38:00,
2013-03-08 20:48:00,39.6,10.6,30.32,West,269,1.0,5.0,30,0.00,CLR,,0.00,WeatherDisplay:10.37,2013-03-09 01:48:00,
2013-03-08 20:58:00,38.9,10.8,30.32,West,274,1.0,6.0,31,0.00,CLR,,0.00,WeatherDisplay:10.37,2013-03-09 01:58:00,
2013-03-08 21:08:00,38.1,10.1,30.32,NNW,329,0.0,5.0,31,0.00,CLR,,0.00,WeatherDisplay:10.37,2013-03-09 02:08:00,
2013-03-08 21:18:00,37.3,10.8,30.32,NNW,330,0.0,0.0,33,0.00,CLR,,0.00,WeatherDisplay:10.37,2013-03-09 02:18:00,
2013-03-08 21:28:00,36.5,10.7,30.29,NNW,328,0.0,4.0,34,0.00,CLR,,0.00,WeatherDisplay:10.37,2013-03-09 02:28:00,
2013-03-08 21:38:00,36.5,13.9,30.32,NE,56,0.0,3.0,39,0.00,CLR,,0.00,WeatherDisplay:10.37,2013-03-09 02:38:00,
2013-03-08 21:48:00,36.0,13.9,30.32,ESE,104,0.0,4.0,40,0.00,CLR,,0.00,WeatherDisplay:10.37,2013-03-09 02:48:00,
2013-03-08 21:58:00,35.2,13.8,30.32,SSE,156,0.0,4.0,41,0.00,CLR,,0.00,WeatherDisplay:10.37,2013-03-09 02:58:00,
2013-03-08 22:08:00,34.7,12.8,30.32,WSW,255,0.0,3.0,40,0.00,CLR,,0.00,WeatherDisplay:10.37,2013-03-09 03:08:00,
2013-03-08 22:18:00,34.0,13.8,30.32,WSW,252,0.0,0.0,43,0.00,CLR,,0.00,WeatherDisplay:10.37,2013-03-09 03:18:00,
2013-03-08 22:28:00,33.4,14.3,30.32,WSW,252,0.0,0.0,45,0.00,CLR,,0.00,WeatherDisplay:10.37,2013-03-09 03:28:00,
2013-03-08 22:38:00,32.9,13.9,30.29,North,350,0.0,0.0,45,0.00,CLR,,0.00,WeatherDisplay:10.37,2013-03-09 03:38:00,
2013-03-08 22:48:00,34.1,15.9,30.29,WSW,245,0.0,0.0,47,0.00,CLR,,0.00,WeatherDisplay:10.37,2013-03-09 03:48:00,
2013-03-08 22:58:00,33.0,13.9,30.29,NNE,28,1.0,4.0,45,0.00,CLR,,0.00,WeatherDisplay:10.37,2013-03-09 03:58:00,
2013-03-08 23:08:00,32.9,14.9,30.29,WNW,292,3.0,6.0,47,0.00,CLR,,0.00,WeatherDisplay:10.37,2013-03-09 04:08:00,
2013-03-08 23:18:00,34.0,15.9,30.29,SSE,165,1.0,6.0,47,0.00,CLR,,0.00,WeatherDisplay:10.37,2013-03-09 04:18:00,
2013-03-08 23:28:00,32.9,14.4,30.29,North,11,0.0,4.0,46,0.00,CLR,,0.00,WeatherDisplay:10.37,2013-03-09 04:28:00,
2013-03-08 23:38:00,33.2,15.1,30.29,SSW,194,2.0,6.0,47,0.00,CLR,,0.00,WeatherDisplay:10.37,2013-03-09 04:38:00,
2013-03-08 23:48:00,33.0,14.5,30.29,North,8,0.0,4.0,46,0.00,CLR,,0.00,WeatherDisplay:10.37,2013-03-09 04:48:00,
2013-03-08 23:58:00,32.7,15.2,30.29,SSE,149,3.0,5.0,48,0.00,CLR,,0.00,WeatherDisplay:10.37,2013-03-09 04:58:00,